Activity Log for May, 15 2020

Back to Activity Log Search


Incident Time Nature Address
20F048572 00:00:20 43 DISTURBANCE 14XX BAXTER ST
20F048574 00:05:31 EMS 10XX BROADWAY
20F048573 00:06:35 EMS 82XX WELSCH DR
20F048576 00:08:35 63 CONTACT 9XX RIVERMET AVE
20F048577 00:10:46 40A AUDIBLE 41XX FOURIER DR
20F048575 00:10:49 43 DISTURBANCE 26XX RIVER COVE TRL
20F048578 00:12:33 30 TRAFFIC STOP E STATE BLVD & PARNELL AVE
20F048579 00:25:31 44LM 3XX KINSMOOR AVE
20F048580 00:32:37 43 DISTURBANCE 1XX ESMOND ST
20F048582 00:40:11 25HS HIT SKIP OLIVER ST & GRIER ST
20F048581 00:40:19 48 SUSPICIOUS 78XX AMHERST DR
20F048584 00:54:13 50,ATTEMPTED 36XX BROOKLYN AVE
20F048583 00:54:30 30 TRAFFIC STOP E WASHINGTON BLVD & GLASGOW AVE
20F048585 00:56:20 40A AUDIBLE 3XX LEY RD
20F048586 00:57:14 26HS PI HITSKIP E WASHINGTON CENTER RD & N CLINTON
20F048587 00:58:56 43 DISTURBANCE 25XX RIVER COVE TRL
20F048588 01:01:47 46,96 21XX VERSAILLES VILLAGE PL
20F048589 01:13:29 30 TRAFFIC STOP COVINGTON RD & HOMESTEAD RD
20F048590 01:21:36 30 TRAFFIC STOP HESSEN CASSEL RD & E PAULDING RD
20F048591 01:29:35 48 SUSPICIOUS SOUTHPARK DR & E SHERWOOD TER
20F048592 01:29:35 43 DISTURBANCE 29XX GOSHEN RD
20F048593 01:42:24 75 PURSUIT GAYWOOD DR & HAMILTON AVE
20F048595 01:44:48 46,96 29XX GOSHEN RD
20F048594 01:45:09 1 MEET W COLISEUM BLVD & GOSHEN RD
20F048596 01:46:30 129 12XX E GOLDSPUR DR
20F048597 01:49:58 44 NUISANCE 13XX GREENE ST
20F048599 02:00:18 46,96 44XX WINTER ST
20F048598 02:03:32 911 HANG UP 13XX GREENE ST
20F048600 02:24:15 37 PARKING VIOL 56XX OLD DOVER BLVD
20F048601 02:31:30 40A AUDIBLE 26XX KNIGHTSBRIDGE DR
20F048602 02:38:38 96JO 58XX TURTLE CREEK DR
20F048603 02:45:30 44LM 46XX LAFAYETTE ESPLANADE
20F048604 02:58:12 22I JUV INVEST 10XX W PACKARD AVE
20F048605 03:02:31 30 TRAFFIC STOP LIMA RD & LEY RD
20F048606 03:05:01 48 SUSPICIOUS 62XX WEBSTER ST
20F048607 03:10:35 48,36 24XX WINDSONG CT
20F048608 03:33:31 62 PARTY ARMED 52XX S HARRISON ST
20F048609 03:41:28 113 SHOTS FIRED E CREIGHTON AVE & S ANTHONY BLVD
20F048610 03:45:18 66 MENTALLY ILL 17XX BLUFFTON RD
20F048611 03:52:47 40A AUDIBLE 19XX FLORIDA DR
20F048612 03:56:45 48 SUSPICIOUS E RUDISILL BLVD & S ANTHONY BLVD
20F048613 04:02:56 30 TRAFFIC STOP HESSEN CASSEL RD & MCKINNIE AVE
20F048614 04:09:19 48 SUSPICIOUS 81XX BRIDGEWAY CIR
20F048616 04:15:44 EMS N ANTHONY BLVD & LAKE AVE
20F048615 04:16:49 43 DISTURBANCE 28XX S CALHOUN ST
20F048617 04:22:43 41 MAN DOWN 109XX W JEFFERSON BLVD
20F048618 04:23:32 48 SUSPICIOUS 32XX W COLISEUM BLVD
20F048619 04:27:12 96 BATTERY 69XX RICHFIELD CT
20F048620 04:36:50 911 HANG UP 41XX SAGE BLUFF XING
20F048621 04:39:52 30 TRAFFIC STOP SPY RUN AVE & LAWTON PL
20F048622 04:40:54 96IP 19XX RIVER RUN TRL
20F048623 05:15:40 41,36 N CLINTON ST & E COLISEUM BLVD
20F048624 05:31:50 40A AUDIBLE 23XX FAIRFIELD AVE
20F048625 05:42:29 40A AUDIBLE 108XX BIRKDALE CT
20F048626 05:55:34 40A AUDIBLE 63XX ARDMORE AVE
20F048627 06:20:42 40A AUDIBLE 79XX DECATUR RD
20F048628 06:36:19 83 INFO REPORT 11XX W PACKARD AVE
20F048629 06:36:22 37 PARKING VIOL 25XX MANFORD ST
20F048630 06:40:20 129 2XX W SUPERIOR ST
20F048631 06:41:49 23JO 28XX S CALHOUN ST
20F048632 06:57:42 15,85 ASST AT O 11XX W FOSTER PKWY
20F048633 07:03:02 46,96 2XX W BUTLER ST
20F048634 07:04:32 129 77XX GLENOAK PKWY
20F048635 07:04:57 129 32XX COUNTRY PARK LN
20F048636 07:23:49 33,34 E PONTIAC ST & S CLINTON ST
20F048637 07:46:07 16,97 35XX TIMBERHILL DR
20F048638 07:49:20 25 PD ACCIDENT 312XX I 69 NB
20F048641 07:53:39 63 CONTACT 33XX FRUEHAUF DR
20F048639 07:53:58 63 CONTACT 48XX WINTER ST
20F048640 07:55:59 63 CONTACT 2XX W SUPERIOR ST
20F048642 07:57:39 43 DISTURBANCE 49XX LIMA RD
20F048644 08:14:36 47 REMOVE ITEMS 19XX W FOURTH ST
20F048643 08:15:03 51,35 15XX CARIBOU DR
20F048645 08:20:23 40A AUDIBLE 71XX S CALHOUN ST
20F048646 08:23:35 1 MEET E WAYNE ST & S CALHOUN ST
20F048647 08:47:00 51,35 18XX MAJESTIC LN
20F048649 08:51:21 111D DOG 33XX CONGRESS AVE
20F048648 08:52:14 23,35 VAND VEH 22XX TIMBERLAKE TRL
20F048650 08:54:55 46,96 21XX HOBSON RD
20F048651 08:58:21 27 RECKLESS DRI 300XX I 69 NB
20F048652 09:08:34 103 UNWANTED 20XX BROADWAY
20F048653 09:11:22 48,36 41XX MAYBERRY ST
20F048654 09:13:56 129 54XX ASHLAND DR
20F048655 09:26:37 48,36 42XX ROSEVIEW RD
20F048656 09:28:27 43 DISTURBANCE N CLINTON ST & E COLISEUM BLVD
20F048658 09:30:32 23,35 VAND VEH 54XX LOIS LN
20F048659 09:36:39 43 DISTURBANCE 35XX W COLISEUM BLVD
20F048660 09:41:42 129 16XX CASS ST
20F048661 09:42:07 51 THEFT 16XX RICHARDSON ST
20F048662 09:45:18 43 DISTURBANCE N COLISEUM BLVD & E STATE BLVD
20F048663 09:52:27 51 THEFT 53XX COVENTRY PKWY
20F048664 09:55:27 911 HANG UP 11XX S CALHOUN ST
20F048665 10:03:43 65T SUICIDE THR 3XX E MAPLE GROVE AVE
20F048666 10:07:37 40 ALARM 40XX PARNELL AVE
20F048667 10:22:48 51,35 69XX GOODRICH RD
20F048668 10:30:09 48,36 2XX FIFTH ST
20F048671 10:37:50 63 CONTACT 24XX FAIRFIELD AVE
20F048669 10:38:09 25 PD ACCIDENT N CLINTON ST & COLDWATER RD
20F048672 10:38:12 63 CONTACT 53XX GOSHEN RD
20F048673 10:40:50 25 PD ACCIDENT ENGLE RD & ARDMORE AVE
20F048674 10:45:09 103 UNWANTED 41XX N CLINTON ST
20F048676 10:46:26 102,TX THREATS 33XX RAYMOND AVE
20F048677 10:46:52 22I JUV INVEST 11XX LOUISEDALE DR
20F048678 10:49:38 50 BURGLARY 11XX FAIRFIELD AVE
20F048679 10:53:55 16,97 34XX N CLINTON ST
20F048680 11:01:53 43 DISTURBANCE 20XX HILLSIDE AVE
20F048681 11:08:39 30 TRAFFIC STOP 59XX COVINGTON RD
20F048682 11:22:20 51 THEFT 42XX W WASHINGTON CENTER RD
20F048683 11:28:52 46 DOMESTIC 76XX CLOVER MEADOW DR
20F048687 11:32:23 47 REMOVE ITEMS 31XX WELLS ST
20F048684 11:36:41 43 DISTURBANCE 42XX W WASHINGTON CENTER RD
20F048685 11:48:51 65T SUICIDE THR 26XX E STATE BLVD
20F048686 11:54:19 51 THEFT 23XX S ANTHONY BLVD
20F048688 11:56:15 33,34 W COLISEUM BLVD & LIMA RD
20F048689 11:57:05 39 STOLEN VEHIC 20XX SOVEREIGN DR
20F048691 12:00:15 22RC RECOVERY 31XX HOAGLAND AVE
20F048692 12:07:34 33,34 I 69 AND DUPONT RD
20F048690 12:08:10 23,35 VAND VEH 80XX MYSTIC DR
20F048693 12:19:52 102 THREATS 80XX MYSTIC DR
20F048694 12:26:17 43 DISTURBANCE 57XX BLUFFTON RD
20F048695 12:27:25 46,96 13XX MCKINNIE AVE
20F048696 12:28:52 25 PD ACCIDENT ILLINOIS RD & MAGNAVOX WAY
20F048697 12:29:38 43 DISTURBANCE 2XX W SUPERIOR ST
20F048698 12:34:44 25 PD ACCIDENT LONG RD & MAYSVILLE RD
20F048699 12:35:59 43 DISTURBANCE 54XX OLD DOVER BLVD
20F048700 12:38:37 48 SUSPICIOUS 19XX SEDDLEMEYER AVE
20F048702 12:40:09 43 DISTURBANCE 10XX ELMWOOD AVE
20F048703 12:40:17 46 DOMESTIC 9XX E COOK RD
20F048701 12:40:23 30 TRAFFIC STOP MEYER RD & E WASHINGTON BLVD
20F048704 12:44:44 48,36 SPEEDWAY DR & W COLISEUM BLVD
20F048705 12:48:46 65T SUICIDE THR 10XX W COLISEUM BLVD
20F048710 12:54:16 33 DISABLED VEH 309XX I 69 SB
20F048706 12:55:09 33,34 S LAFAYETTE ST & S ANTHONY BLVD
20F048707 12:59:32 46 DOMESTIC 63XX TALBOT CT
20F048708 13:00:28 43 DISTURBANCE 9XX MCKINNIE AVE
20F048709 13:08:00 27 RECKLESS DRI 302XX I 69 SB
20F048711 13:10:52 HARASSMENT 6XX E LEWIS ST
20F048712 13:12:02 26 PI ACCIDENT S ANTHONY BLVD & E PAULDING RD
20F048713 13:14:34 23 VANDALISM 33XX W COLISEUM BLVD
20F048714 13:16:08 96JO 30XX MCCORMICK AVE
20F048715 13:17:08 HARASSMENT XX E MAIN ST
20F048716 13:29:25 22RC RECOVERY 70XX STRAWBERRY DR
20F048717 13:38:25 30 TRAFFIC STOP E PONTIAC ST & BIRCHWOOD AVE
20F048719 13:39:26 25 PD ACCIDENT WINCHESTER RD & AIRPORT EXPRESSWAY
20F048718 13:39:44 30 TRAFFIC STOP LIMA RD & ASHLEY AVE
20F048741 13:40:49 22I JUV INVEST 78XX PRESTON POINTE DR
20F048721 13:43:18 63 CONTACT 45XX COVENTRY PKWY
20F048720 13:45:51 25 PD ACCIDENT E COLUMBIA ST & COLUMBIA AVE
20F048722 13:50:39 30 TRAFFIC STOP W COOK RD & WOODBINE AVE
20F048723 13:52:10 103 UNWANTED 109XX W JEFFERSON BLVD
20F048724 13:53:40 30 TRAFFIC STOP MAYSVILLE RD & STELLHORN RD
20F048725 13:53:50 46 DOMESTIC 42XX FIELDBROOK PASS
20F048727 13:54:01 25 PD ACCIDENT 18XX DREXEL AVE
20F048726 13:54:55 41 MAN DOWN 57XX S ANTHONY BLVD
20F048728 13:58:23 25 PD ACCIDENT 2XX S CLINTON ST
20F048729 14:00:11 30 TRAFFIC STOP W COOK RD & OPPORTUNITY DR
20F048730 14:01:47 30 TRAFFIC STOP W STATE BLVD & OLLADALE DR
20F048731 14:04:16 30 TRAFFIC STOP COLDWATER RD & E COOK RD
20F048732 14:04:41 HARASSMENT 3XX E WASHINGTON BLVD
20F048733 14:05:47 39R STOLEN RECO 13XX N COLISEUM BLVD
20F048734 14:07:25 30 TRAFFIC STOP W COOK RD & WOODBINE AVE
20F048743 14:07:49 65T SUICIDE THR 34XX E STATE BLVD
20F048736 14:08:36 96 BATTERY XX E MAIN ST
20F048751 14:08:39 66 72 HOUR 26XX E STATE BLVD
20F048735 14:08:44 48,36 29XX ROLSTON ST
20F048738 14:10:08 41 MAN DOWN 20XX HILLSIDE AVE
20F048737 14:10:35 51,35 79XX COLDWATER RD
20F048739 14:10:43 47 REMOVE ITEMS 17XX SINCLAIR ST
20F048740 14:15:18 51 THEFT 49XX SALEM LN
20F048742 14:16:00 30 TRAFFIC STOP W COOK RD & DISALLE BLVD
20F048744 14:18:43 30 TRAFFIC STOP ILLINOIS RD & CHESTNUT PLAZA DR
20F048745 14:19:17 30 TRAFFIC STOP W STATE BLVD & TYLER AVE
20F048746 14:20:03 30 TRAFFIC STOP COLDWATER RD & E COOK RD
20F048747 14:20:18 30 TRAFFIC STOP S CLINTON ST & E MAIN ST
20F048748 14:20:26 30 TRAFFIC STOP N CLINTON ST & FERNWOOD AVE
20F048750 14:25:11 30 TRAFFIC STOP E COOK RD & COLD SPRINGS BLVD
20F048753 14:25:31 25 PD ACCIDENT XX W US 30 RAMP C
20F048752 14:26:41 30 TRAFFIC STOP GOSHEN AVE & ST MARYS AVE
20F048754 14:27:27 46 DOMESTIC 4XX FIFTH ST
20F048755 14:31:03 30 TRAFFIC STOP W STATE BLVD & TYLER AVE
20F048756 14:34:46 HARASSMENT 4XX FIFTH ST
20F048757 14:34:57 30 TRAFFIC STOP 58XX CHALLENGER PKWY
20F048758 14:36:30 EMS 76XX SOUTHTOWN XING
20F048759 14:37:48 30 TRAFFIC STOP 3XX S CLINTON ST
20F048760 14:38:09 30 TRAFFIC STOP ILLINOIS RD & CHESTNUT PLAZA DR
20F048761 14:39:47 30 TRAFFIC STOP W STATE BLVD & TYLER AVE
20F048763 14:39:57 108 FOLLOWUP 12XX N COLISEUM BLVD
20F048762 14:40:09 30 TRAFFIC STOP W COOK RD & LIMA RD
20F048764 14:41:35 25 PD ACCIDENT 30XX W WASHINGTON CENTER RD
20F048765 14:45:05 108 FOLLOWUP E WAYNE ST & S MONROE ST
20F048766 14:45:21 30 TRAFFIC STOP ILLINOIS RD & CHESTNUT PLAZA DR
20F048767 14:45:33 30 TRAFFIC STOP S ANTHONY BLVD & E WAYNE TRACE
20F048770 14:45:55 15 ASSIST 17XX HOBSON RD
20F048768 14:46:36 30 TRAFFIC STOP COLDWATER RD & STONE POINTE DR
20F048769 14:46:49 14 WARRANT 15XX WELLS ST
20F048771 14:48:09 30 TRAFFIC STOP W STATE BLVD & OLLADALE DR
20F048772 14:49:16 30 TRAFFIC STOP 6XX S CLINTON ST
20F048773 14:52:49 30 TRAFFIC STOP W COOK RD & OPPORTUNITY DR
20F048774 14:52:49 46,62 4XX FAIRWICK LN
20F048777 14:54:10 46 DOMESTIC 33XX DIPLOMAT DR
20F048775 14:55:20 30 TRAFFIC STOP 28XX W STATE BLVD
20F048778 14:55:20 25HS HIT SKIP 34XX S CALHOUN ST
20F048782 14:58:31 ATL 7XX E TILLMAN RD
20F048776 14:58:43 30 TRAFFIC STOP COLDWATER RD & E COOK RD
20F048779 15:01:24 30 TRAFFIC STOP 6XX S CLINTON ST
20F048780 15:01:26 30 TRAFFIC STOP W COOK RD & WOODBINE AVE
20F048781 15:03:11 30 TRAFFIC STOP W STATE BLVD & TYLER AVE
20F048783 15:09:10 109 DUMPING 11XX WABASH AVE
20F048784 15:09:24 30 TRAFFIC STOP E MAIN ST & S CALHOUN ST
20F048785 15:10:01 30 TRAFFIC STOP W COOK RD & OPPORTUNITY DR
20F048786 15:11:20 30 TRAFFIC STOP COLDWATER RD & E COOK RD
20F048787 15:11:31 43 DISTURBANCE 10XX W WAYNE ST
20F048788 15:13:46 EMS 6XX WALLEN HILLS DR
20F048789 15:14:28 103 UNWANTED 2XX E RUDISILL BLVD
20F048790 15:16:19 48 SUSPICIOUS 2XX E PETTIT AVE
20F048797 15:18:15 46 DOMESTIC 62XX LANDSDOWNE DR
20F048791 15:18:31 30 TRAFFIC STOP W COOK RD & OPPORTUNITY DR
20F048792 15:19:20 30 TRAFFIC STOP 6XX S CLINTON ST
20F048794 15:20:08 33,34 S LAFAYETTE ST & E PONTIAC ST
20F048793 15:20:21 33,34 13XX I 469 NB
20F048799 15:21:14 63 CONTACT E FOURTH ST & N CLINTON ST
20F048795 15:22:03 30 TRAFFIC STOP W STATE BLVD & HILLEGAS RD
20F048796 15:23:10 25 PD ACCIDENT VALUE DR & PROGRESS RD
20F048798 15:24:38 16,97 3XX E BERRY ST
20F048800 15:27:34 1 MEET SPY RUN AVE & WAGNER ST
20F048801 15:28:22 23,35 VAND VEH 19XX MAPLEWOOD RD
20F048802 15:28:35 30 TRAFFIC STOP E SUPERIOR ST & S LAFAYETTE ST
20F048803 15:29:33 30 TRAFFIC STOP 35XX W STATE BLVD
20F048804 15:31:13 30 TRAFFIC STOP COLDWATER RD & E COOK RD
20F048816 15:33:01 22RC RECOVERY 38XX EUCLID AVE
20F048805 15:33:28 EMS 14XX VENTURA LN
20F048806 15:37:10 30 TRAFFIC STOP E RUDISILL BLVD & S LAFAYETTE ST
20F048807 15:38:14 30 TRAFFIC STOP E WASHINGTON BLVD & WHITE AVE
20F048808 15:38:24 55 FIGHT 32XX FAIRFIELD AVE
20F048809 15:38:59 57 STRONG ARM 54XX S ANTHONY BLVD
20F048810 15:40:09 30 TRAFFIC STOP W STATE BLVD & LINDENWOOD AVE
20F048811 15:40:16 30 TRAFFIC STOP 6XX S CLINTON ST
20F048814 15:41:30 34 TRAFF HAZARD 24XX THOMPSON AVE
20F048812 15:45:23 30 TRAFFIC STOP W STATE BLVD & LINDENWOOD AVE
20F048817 15:45:56 51JO 44XX ILLINOIS RD
20F048813 15:46:18 30 TRAFFIC STOP COLDWATER RD & E COOK RD
20F048815 15:48:18 30 TRAFFIC STOP S CLINTON ST & E WAYNE ST
20F048818 15:49:41 30 TRAFFIC STOP W STATE BLVD & WESTSTATE CT
20F048823 15:51:28 18 WORK TRAFFIC 4XX FALLEN TIMBERS TRL
20F048819 15:52:37 30 TRAFFIC STOP W STATE BLVD & HILLEGAS RD
20F048820 15:55:34 46 DOMESTIC 10XX N COLISEUM BLVD
20F048822 15:59:18 46 DOMESTIC 44XX WINTER ST
20F048824 16:01:05 25 PD ACCIDENT S LAFAYETTE ST & SOUTHTOWN BLVD
20F048821 16:01:08 30 TRAFFIC STOP LINDENWOOD AVE & TRENTON CT
20F048825 16:06:34 30 TRAFFIC STOP 6XX S CLINTON ST
20F048826 16:07:25 30 TRAFFIC STOP COLDWATER RD & E COOK RD
20F048827 16:08:04 43 DISTURBANCE 1XX MCKINNIE AVE
20F048829 16:09:43 27 RECKLESS DRI N ARLINGTON PKWY & ST JOE CENTER R
20F048828 16:13:10 30 TRAFFIC STOP W STATE BLVD & TYLER AVE
20F048831 16:13:34 43 DISTURBANCE 61XX STELLHORN RD
20F048830 16:13:35 129 3XX LEXINGTON CT
20F048833 16:14:50 25 PD ACCIDENT I 69 AND LIMA RD
20F048832 16:15:28 30 TRAFFIC STOP SPY RUN AVE & E SUPERIOR ST
20F048836 16:15:45 25 PD ACCIDENT DECATUR RD & S LAFAYETTE ST
20F048848 16:17:10 14 WARRANT 25XX MAUMEE AVE
20F048835 16:19:06 47 REMOVE ITEMS 17XX SINCLAIR ST
20F048834 16:19:44 30 TRAFFIC STOP FAIRVIEW AVE & MAUMEE AVE
20F048837 16:24:44 129 52XX BUELL DR
20F048838 16:26:32 43 DISTURBANCE 61XX STELLHORN RD
20F048839 16:27:36 41 MAN DOWN 60XX S ANTHONY BLVD
20F048840 16:27:50 48 SUSPICIOUS RECKEWEG RD & ILLINOIS RD
20F048841 16:29:03 30 TRAFFIC STOP S CLINTON ST & E MAIN ST
20F048842 16:32:40 26 PI ACCIDENT I 69 AND ILLINOIS RD
20F048843 16:34:23 30 TRAFFIC STOP COLDWATER RD & E WASHINGTON CENTER
20F048844 16:34:58 43,62 5XX N CAMDEN DR
20F048845 16:36:56 55 FIGHT 25XX CARVER CT
20F048847 16:41:25 44LM 83XX HARBOR PINES PL
20F048849 16:42:13 911 HANG UP 110XX WILMINGTON CT
20F048846 16:42:48 30 TRAFFIC STOP 6XX S CLINTON ST
20F048868 16:45:29 45 NEIGHBORHOOD 9XX BETHANY LN
20F048857 16:46:29 96 BATTERY 10XX SWINNEY AVE
20F048850 16:46:33 51JO 39XX S CALHOUN ST
20F048851 16:48:54 30 TRAFFIC STOP S CLINTON ST & E OAKDALE DR
20F048853 16:49:58 25HS HIT SKIP BOWSER AVE & BAXTER ST
20F048852 16:50:35 30 TRAFFIC STOP S CLINTON ST & E BERRY ST
20F048855 16:51:42 48 SUSPICIOUS 34XX TAYLOR ST
20F048854 16:52:12 48,36 123XX HARBOUR POINTE
20F048856 16:54:51 33J LOCKED OUT 67XX RAMBLEWOOD CT
20F048858 16:58:33 30 TRAFFIC STOP S CLINTON ST & E OAKDALE DR
20F048859 17:01:32 26 PI ACCIDENT W STATE BLVD & WELLS ST
20F048860 17:03:02 129 110XX BITTERSWEET DELLS LN
20F048863 17:03:42 11C CAGE CAR 53XX COLDWATER RD
20F048865 17:03:52 34 TRAFF HAZARD 10XX MORROW WAY
20F048861 17:04:01 30 TRAFFIC STOP 6XX S CLINTON ST
20F048862 17:05:33 103 UNWANTED 20XX BROADWAY
20F048864 17:10:06 40A AUDIBLE 30XX HOMEDALE DR
20F048867 17:15:48 48 SUSPICIOUS 38XX COLDWATER RD
20F048866 17:17:35 30 TRAFFIC STOP 6XX S CLINTON ST
20F048869 17:23:09 HARASSMENT 9XX RIVERMET AVE
20F048870 17:25:12 51 THEFT 29XX E TILLMAN RD
20F048871 17:26:08 57 STRONG ARM 39XX DALEWOOD DR
20F048872 17:27:10 48 SUSPICIOUS FOX AVE & TAYLOR ST
20F048873 17:30:51 51 THEFT 8XX LAKE AVE
20F048874 17:31:58 70 HOUSE FIRE 4XX FALLEN TIMBERS TRL
20F048876 17:32:17 25 PD ACCIDENT I 69 AND ILLINOIS RD
20F048875 17:32:24 25 PD ACCIDENT E WASHINGTON BLVD & S LAFAYETTE ST
20F048889 17:34:06 61 RAPE 14XX KERRWAY CT
20F048877 17:39:08 46 DOMESTIC 34XX CONGRESS AVE
20F048879 17:40:20 25 PD ACCIDENT W WASHINGTON CENTER RD & LIMA RD
20F048878 17:40:59 41 MAN DOWN 15XX WELLS ST
20F048880 17:48:08 25 PD ACCIDENT SHERMAN BLVD & MARGARET AVE
20F048881 17:49:58 63 CONTACT 79XX DECATUR RD
20F048882 18:01:03 LP LOST PROPERT E BERRY ST & COOMBS ST
20F048883 18:04:25 25,86 W JEFFERSON BLVD & HOMESTEAD RD
20F048884 18:04:27 34 TRAFF HAZARD CYPRESS LN & REDBUD DR
20F048885 18:07:35 25HS HIT SKIP 77XX ST JOE CENTER RD
20F048886 18:07:51 96JO 63XX SHELL DR
20F048887 18:09:24 48 SUSPICIOUS 20XX BROADWAY
20F048929 18:15:11 51 THEFT 61XX BRIDLEWOOD DR
20F048893 18:17:45 65T SUICIDE THR 59XX DECATUR RD
20F048892 18:18:15 66 MENTALLY ILL 85XX SAKADEN PKWY
20F048891 18:18:24 25 PD ACCIDENT BEACON ST & E STATE BLVD
20F048894 18:20:22 40A AUDIBLE 49XX ILLINOIS RD
20F048895 18:24:18 51,35 49XX OLD MAYSVILLE RD
20F048896 18:26:03 80 CIVIL INVEST XX E MAIN ST
20F048904 18:38:32 1 MEET 17XX CARROLL RD
20F048898 18:39:44 46,96 32XX VESEY AVE
20F048899 18:40:48 30 TRAFFIC STOP HILLEGAS RD & BASS RD
20F048900 18:41:42 51 THEFT 19XX CORONET DR
20F048908 18:44:16 37 PARKING VIOL 12XX RUNNION AVE
20F048901 18:45:46 23JO 13XX FALL CREEK DR
20F048907 18:45:49 50 BURGLARY 34XX BEAVER AVE
20F048903 18:47:05 43 DISTURBANCE 23XX SMITH ST
20F048902 18:47:36 43 DISTURBANCE 7XX FREDERICK ST
20F048905 18:51:40 103 UNWANTED 38XX NEWPORT AVE
20F048906 18:57:00 20 PROBLEM UNK 88XX COLDWATER RD
20F048909 18:57:58 48 SUSPICIOUS HUGUENARD RD & W WASHINGTON CENTER
20F048911 19:01:55 22RN RUNAWAY 63XX KENT RD
20F048912 19:03:37 43 DISTURBANCE 7XX RIDGEWOOD DR
20F048913 19:04:04 25 PD ACCIDENT E PETTIT AVE & PLAZA DR
20F048914 19:06:24 65T SUICIDE THR 28XX GAY ST
20F048915 19:07:58 43 DISTURBANCE 39XX DALEWOOD DR
20F048916 19:11:15 48 SUSPICIOUS 2XX E FOURTH ST
20F048917 19:11:48 14S SERVING WAR 35XX LILLIE ST
20F048918 19:22:19 30 TRAFFIC STOP ILLINOIS RD & S HADLEY RD
20F048919 19:23:14 41,36 32XX WEBSTER ST
20F048920 19:26:00 48 SUSPICIOUS 2XX E MAIN ST
20F048924 19:30:49 30 TRAFFIC STOP W US 30 & KROEMER RD
20F048921 19:34:17 33,34 S LAFAYETTE ST & E PAULDING RD
20F048922 19:34:17 15,85 ASST AT O 61XX MONARCH DR
20F048923 19:37:14 EMS 20XX KLUG DR
20F048925 19:47:39 41 MAN DOWN 20XX HILLSIDE AVE
20F048927 19:49:26 67 INDECENT 16XX W JEFFERSON BLVD
20F048926 19:49:58 23,35 VAND VEH 28XX HOLTON AVE
20F048930 19:50:13 50 BURGLARY 11XX E PONTIAC ST
20F048928 19:54:36 911 HANG UP 110XX WILMINGTON CT
20F048933 19:55:41 108 FOLLOWUP 34XX SENATE AVE
20F048931 20:00:24 41 MAN DOWN 10XX SPRING ST
20F048932 20:08:18 48 SUSPICIOUS 14XX LAKE AVE
20F048934 20:10:58 48 SUSPICIOUS 11XX WELLS ST
20F048935 20:16:17 109 DUMPING 101XX MAYSVILLE RD
20F048937 20:18:31 103 UNWANTED 7XX BROADWAY
20F048938 20:19:52 25 PD ACCIDENT W WASHINGTON BLVD & ROCKHILL ST
20F048936 20:20:19 48 SUSPICIOUS HOAGLAND AVE & W MASTERSON AVE
20F048939 20:22:39 55 FIGHT 37XX AVONDALE DR
20F048940 20:25:44 40A AUDIBLE 22XX SHERMAN BLVD
20F048942 20:26:26 25HS HIT SKIP 38XX AVONDALE DR
20F048941 20:29:17 14 WARRANT 20XX BAYVIEW DR
20F048943 20:30:28 34 TRAFF HAZARD S LAFAYETTE ST & E SUTTENFIELD AVE
20F048944 20:35:14 48 SUSPICIOUS 5XX THIRD ST
20F048945 20:35:32 22RN RUNAWAY 4XX FAIRWICK LN
20F048946 20:45:15 33J LOCKED OUT 4XX S CALHOUN ST
20F048948 20:47:23 25 PD ACCIDENT 12XX COLUMBIA AVE
20F048947 20:47:29 48 SUSPICIOUS 14XX WELLS ST
20F048949 20:48:55 27 RECKLESS DRI 13XX FARWOOD AVE
20F048950 21:00:03 48 SUSPICIOUS 58XX BLUFFTON RD
20F048951 21:01:17 44LM 6XX TILLWATER LN
20F048952 21:12:58 44FW 45XX WINDING WAY DR
20F048954 21:14:27 63 CONTACT 14XX WALL ST
20F048956 21:15:49 44FW 23XX HIAWATHA BLVD
20F048953 21:17:10 43 DISTURBANCE 30XX CANTERBURY BLVD
20F048959 21:17:43 30 TRAFFIC STOP 313XX I 69 SB
20F048955 21:20:23 43 DISTURBANCE 30XX W COLISEUM BLVD
20F048957 21:22:10 15 ASSIST E COLISEUM BLVD & COLDWATER RD
20F048958 21:24:54 113 SHOTS FIRED 10XX W WAYNE ST
20F048960 21:35:30 22RN RUNAWAY 38XX EUCLID AVE
20F048961 21:35:46 41 MAN DOWN 2XX W SUPERIOR ST
20F048962 21:37:45 20 PROBLEM UNK 43XX EVARD RD
20F048970 21:38:53 44FW 23XX HIAWATHA BLVD
20F048963 21:42:09 30 TRAFFIC STOP 38XX COLDWATER RD
20F048964 21:42:26 46,96 26XX DEXTER DR
20F048965 21:43:47 42 INTOX PERSON 1XX E CREIGHTON AVE
20F048967 21:44:15 48,36 PUTNAM ST & CORTLAND AVE
20F048966 21:45:45 50IP BURG I/P 11XX FAYETTE DR
20F048969 21:46:56 40A AUDIBLE 62XX GATE TREE LN
20F048968 21:47:19 43 DISTURBANCE 19XX HIGH ST
20F048973 21:48:38 46 DOMESTIC 44XX PLAZA DR
20F048971 21:50:34 43,62 S ANTHONY BLVD & CAPITOL AVE
20F048972 21:53:15 30 TRAFFIC STOP LIMA RD & PROGRESS RD
20F048974 21:56:14 44 NUISANCE 6XX S HARRISON ST
20F048975 21:58:37 30 TRAFFIC STOP 57XX COLDWATER RD
20F048976 22:07:10 65A SUICIDE ATT 48XX BLUM DR
20F048977 22:07:37 46 DOMESTIC 22XX HOBSON RD
20F048979 22:10:10 63 CONTACT LAKE AVE & N COLISEUM BLVD
20F048978 22:13:28 48 SUSPICIOUS 28XX ROLSTON ST
20F048981 22:16:57 41 MAN DOWN 33XX VESEY AVE
20F048980 22:17:36 30 TRAFFIC STOP GETZ RD & CONSTITUTION DR
20F048982 22:26:54 34 TRAFF HAZARD WYANDOTTE DR & STELLHORN RD
20F048983 22:27:18 1 MEET 16XX NORTHLAND BLVD
20F048984 22:29:15 44LB 42XX RICHFIELD LN
20F049024 22:29:24 37 PARKING VIOL 36XX AVONDALE DR
20F048985 22:31:16 30 TRAFFIC STOP DREXEL AVE & CENTRAL DR
20F048986 22:31:48 25HS HIT SKIP 13XX HIGH ST
20F048987 22:33:22 40A AUDIBLE 100XX LIMA RD
20F048988 22:33:56 41 MAN DOWN 10XX BROADWAY
20F048989 22:35:50 46 DOMESTIC 10XX FARWOOD AVE
20F048990 22:39:25 39R STOLEN RECO 37XX SOUTHPARK DR
20F048991 22:40:04 40A AUDIBLE 13XX S ILLINOIS RD
20F048992 22:40:37 30 TRAFFIC STOP BOWSER AVE & OLIVER ST
20F048993 22:42:05 18 WORK TRAFFIC 12XX PINE VALLEY DR
20F048994 22:45:02 113 SHOTS FIRED 29XX ADAMS ST
20F048995 22:46:02 30 TRAFFIC STOP W COOK RD & INNOVATION BLVD
20F048996 22:51:30 30 TRAFFIC STOP 29XX FRUEHAUF DR
20F048997 22:51:48 67 INDECENT 33XX OLIVER ST
20F048998 22:53:12 101 OPEN DOOR 45XX S ANTHONY BLVD
20F049000 22:56:32 24 MISSING PERS 44XX WINTER ST
20F048999 22:57:30 48,36 HOBSON RD & LAKE AVE
20F049001 23:07:38 113 SHOTS FIRED 55XX BRAZO LN
20F049002 23:10:10 14S SERVING WAR 21XX HOBSON RD
20F049003 23:10:37 113 SHOTS FIRED 40XX WINTER ST
20F049006 23:12:19 40 ALARM 31XX OXFORD ST
20F049005 23:12:26 65A SUICIDE ATT 45XX PLAZA DR
20F049004 23:13:24 40A AUDIBLE 36XX LIMA RD
20F049007 23:15:32 30 TRAFFIC STOP LAKE AVE & REED RD
20F049008 23:15:50 46 DOMESTIC 39XX N CLINTON ST
20F049009 23:16:20 43 DISTURBANCE 11XX CHARLOTTE AVE
20F049010 23:16:56 103 UNWANTED 12XX ORCHARD ST
20F049011 23:17:04 103 UNWANTED 16XX CASS ST
20F049012 23:20:48 113 SHOTS FIRED 30XX DELLVIEW DR
20F049013 23:22:00 62 PARTY ARMED 60XX SALISBURY DR
20F049014 23:24:28 30 TRAFFIC STOP N CLINTON ST & DUNNWOOD DR
20F049017 23:27:19 44LM E PAULDING RD & TURTLE CREEK DR
20F049015 23:28:44 113 SHOTS FIRED 45XX SPATZ AVE
20F049016 23:34:07 1 MEET 14XX WALL ST
20F049018 23:42:00 25 PD ACCIDENT 34XX OLIVER ST
20F049019 23:44:11 70 FIRE 60XX LANDSDOWNE DR
20F049020 23:44:15 30 TRAFFIC STOP FULTON ST & W WASHINGTON BLVD
20F049021 23:49:33 46,96 17XX LINDENWOOD AVE
20F049022 23:51:16 113 SHOTS FIRED 48XX OLIVER ST
20F049023 23:56:02 30 TRAFFIC STOP S HANNA ST & GUMPPER AVE